Temp
12 12 12 12 12 12 12 12 11 11 11 11 11 11 11 11 11 11 11 11 11 11 11 11 11 11 11 10 10 10 10 10 9 10 10 10 10 10 10 10 10 10 10 10 10 9 10 10 9 8 8 7 7 6 6 6 6 6 6 6 6 6 7 7 7 7 7 7 8 8 8 8 8 9 9 9 9 10 10 10 11 11 12 13 14
12 12 12 12 12 12 11 11 11 11 11 11 11 11 11 11 11 11 11 11 11 11 11 11 11 11 10 10 9 9 9 9 9 9 9 10 10 10 10 10 10 10 10 10 10 9 9 9 9 8 7 7 6 6 6 6 6 6 6 6 6 6 6 6 7 7 7 7 7 7 7 7 8 8 8 8 8 9 9 10 10 11 11 12 12
12 12 12 12 11 11 11 11 11 11 11 11 11 11 11 11 11 11 11 11 11 11 11 11 10 10 10 9 9 8 8 8 8 8 9 9 10 10 10 10 10 10 10 9 9 9 9 9 8 7 7 6 6 6 6 6 6 6 6 6 6 6 6 6 6 6 6 6 6 6 7 7 7 7 7 7 8 8 8 9 9 10 10 11 12
12 12 12 11 11 11 11 11 11 11 11 11 11 11 11 11 11 11 11 11 11 11 10 10 10 10 9 9 8 7 7 7 7 8 8 8 9 9 9 9 9 9 9 9 9 9 9 9 8 7 7 6 6 6 6 6 6 6 6 6 6 6 6 5 5 5 6 6 6 6 6 6 6 6 7 7 7 7 8 8 8 9 9 10 11
12 12 11 11 11 11 11 11 11 11 11 11 11 11 11 11 11 11 11 11 11 10 10 10 9 9 8 8 7 7 6 6 6 7 7 8 9 9 9 9 9 9 9 9 9 9 9 8 7 7 6 6 6 6 6 6 6 5 5 5 5 5 5 5 5 5 5 5 5 6 6 6 6 6 6 7 7 7 7 7 8 8 9 9 9
12 12 11 11 11 11 11 11 11 11 11 11 11 11 11 11 11 11 11 11 10 10 10 10 9 8 8 7 6 6 6 6 6 6 7 7 8 9 9 9 9 9 9 9 8 8 8 8 7 7 7 7 7 6 6 5 5 5 5 5 4 4 4 4 5 5 5 5 5 6 6 6 6 6 6 6 6 6 7 7 7 8 8 8 8
12 11 11 11 11 11 11 11 11 11 11 11 11 11 11 11 11 11 11 11 10 10 10 9 8 8 7 6 6 5 6 6 6 6 7 7 8 9 9 9 9 9 9 9 8 8 8 8 7 7 7 7 6 6 5 5 4 4 4 4 4 4 4 4 5 5 5 5 5 5 6 6 6 6 6 6 6 6 6 7 7 7 7 7 7
12 12 11 11 11 11 11 11 11 11 11 11 11 11 10 10 10 10 10 10 10 10 10 9 8 7 7 6 5 5 5 6 6 6 7 7 8 8 9 9 9 9 9 9 8 8 8 8 8 7 7 7 6 5 5 5 4 3 3 3 4 4 4 4 4 5 5 5 5 5 5 5 5 5 6 6 6 6 6 6 6 6 7 7 7
12 12 11 11 11 11 11 11 11 11 11 11 10 10 10 10 10 10 10 10 10 10 9 9 8 7 7 6 5 5 5 5 5 6 6 7 7 8 8 9 9 9 9 9 9 8 8 8 8 7 7 7 6 6 6 5 4 3 3 3 4 4 4 4 4 4 5 5 5 5 5 5 5 5 5 5 5 5 6 6 6 6 6 6 6
12 12 11 11 11 11 11 11 11 11 11 10 10 10 10 10 10 9 9 9 9 9 9 9 8 7 6 5 5 5 5 5 5 6 6 7 7 8 8 8 9 9 9 9 9 9 8 8 8 7 7 6 6 6 5 4 3 3 4 4 4 4 4 4 4 4 4 5 5 4 4 4 5 5 5 5 5 5 5 5 5 5 5 5 5
12 12 11 11 11 11 11 11 11 11 10 10 10 10 10 9 9 9 9 9 9 9 9 8 8 7 6 5 5 5 5 5 6 6 6 7 7 8 8 8 9 9 9 9 9 9 8 8 7 7 7 6 6 5 4 4 4 4 4 5 5 5 5 5 5 4 4 4 4 4 4 4 4 4 4 4 4 4 4 4 4 4 4 4 4
12 12 12 12 11 11 11 11 11 11 11 10 10 10 9 9 9 9 9 9 9 9 9 8 8 7 6 5 5 5 5 5 6 6 7 7 7 8 8 8 9 9 9 9 9 8 8 7 7 7 7 6 6 5 4 4 4 4 4 5 5 5 5 5 5 5 4 4 4 4 4 4 4 4 3 3 3 3 3 3 3 3 4 4 4
12 12 12 12 12 11 11 11 11 11 10 10 10 10 10 9 9 9 9 9 8 8 8 8 8 7 6 5 5 5 5 5 6 6 7 7 8 8 8 8 9 9 9 9 9 8 8 7 7 7 6 6 5 5 4 4 4 4 4 5 5 5 6 5 5 5 5 4 4 4 4 3 3 3 3 3 3 3 3 3 3 3 3 3 4
12 12 12 12 12 12 11 11 11 10 10 10 10 10 10 10 9 9 9 9 8 8 8 8 8 7 6 6 5 5 5 5 6 7 7 7 8 8 8 8 9 9 9 9 9 9 8 7 7 7 6 6 5 5 5 5 4 4 4 5 5 5 6 6 5 5 5 4 4 4 4 3 3 3 3 3 3 3 2 2 2 2 3 3 3
12 12 12 12 12 12 11 11 10 10 10 10 10 10 10 10 10 9 9 9 9 8 8 8 8 7 7 6 5 5 5 6 6 7 7 7 8 8 8 8 8 9 9 9 9 9 8 7 7 7 6 5 5 5 5 5 5 4 4 5 5 5 6 6 6 6 5 5 4 4 4 4 3 3 3 3 3 2 2 2 2 2 2 2 2
12 12 12 12 12 11 11 11 11 11 11 10 10 10 10 10 10 9 9 9 9 8 8 7 7 7 7 6 6 6 6 6 6 7 7 7 7 7 7 8 8 8 8 9 9 9 8 8 7 7 6 5 5 5 5 5 5 5 4 5 5 5 6 6 6 6 5 5 5 5 4 4 3 3 3 3 2 2 2 2 2 2 2 2 2
12 12 12 12 12 11 11 11 11 11 11 10 10 10 10 10 10 10 9 9 9 8 8 7 7 7 7 7 6 6 6 6 6 6 7 7 7 7 7 7 7 7 7 8 8 8 8 8 7 7 6 6 5 5 5 5 5 5 5 5 5 5 6 6 6 6 6 5 5 5 4 4 3 3 3 3 2 2 2 1 1 1 1 2 2
12 12 12 12 12 12 11 11 11 11 11 10 10 10 10 10 10 10 10 9 9 9 8 8 7 7 7 7 6 6 6 6 6 6 6 6 6 6 6 6 6 6 6 7 8 8 8 8 7 7 7 6 6 6 6 6 6 5 5 5 5 5 6 6 6 6 6 6 5 5 4 4 3 3 3 2 2 2 2 1 1 1 1 1 2
12 12 12 12 12 12 11 11 11 11 10 10 10 10 10 10 10 10 10 10 10 9 9 8 8 7 7 7 7 6 6 6 6 6 6 6 6 6 6 5 5 5 6 6 7 8 8 7 7 7 7 6 6 6 6 6 6 6 6 5 5 5 6 6 6 6 6 6 6 5 4 4 3 3 2 2 2 2 1 1 1 1 1 1 1
12 12 12 12 12 12 11 11 11 11 10 10 10 10 10 10 10 10 10 10 10 10 9 9 8 8 7 7 7 7 6 6 6 6 6 6 6 5 5 5 5 5 5 6 7 7 7 7 7 7 6 6 6 6 6 6 6 6 6 5 5 6 6 7 7 7 6 6 6 5 4 3 3 2 2 2 1 1 1 0 0 0 0 0 1
13 12 12 12 12 12 11 11 11 10 10 10 10 10 10 10 10 10 10 10 10 10 10 9 9 8 8 8 7 7 7 7 6 6 6 6 5 5 5 5 5 5 5 5 6 7 7 7 6 6 7 6 6 6 7 6 6 6 6 6 6 6 7 7 7 7 6 6 5 4 4 3 2 2 2 1 1 1 1 0 -0 -0 -0 -0 -0
13 12 12 12 12 11 11 11 10 10 10 10 10 10 10 10 10 10 10 10 10 10 10 10 10 9 9 9 8 8 8 7 7 7 7 6 6 5 5 5 5 5 5 5 6 6 6 6 6 6 7 6 6 7 7 7 7 7 6 6 6 7 7 7 7 6 6 6 5 4 3 2 2 2 1 1 1 1 0 0 -0 -0 -0 -0 -0
12 12 12 12 11 11 11 10 10 10 10 10 10 10 10 10 10 10 10 10 10 10 10 10 10 10 10 10 9 9 8 7 7 7 7 6 6 5 5 5 5 5 5 5 5 6 6 6 6 6 7 7 7 7 7 7 7 7 6 6 6 6 7 7 7 6 6 5 5 4 3 2 2 1 1 1 1 1 0 0 -0 -0 -0 0 1
12 12 12 11 11 11 10 10 10 10 10 10 10 10 10 10 10 10 10 10 11 11 11 11 11 11 11 10 10 9 8 8 7 7 7 6 6 5 5 5 5 5 5 5 5 6 6 6 6 7 7 7 7 7 7 7 7 7 6 6 6 6 7 7 6 6 5 5 5 4 3 3 2 2 1 1 1 0 0 0 0 -0 0 2 3
12 12 12 11 11 10 10 10 10 10 10 10 10 10 10 10 10 11 11 11 11 11 11 11 11 11 11 10 10 10 9 8 7 7 7 6 6 6 5 5 5 5 5 5 5 6 6 6 6 7 7 7 7 7 7 7 7 6 6 6 6 6 6 6 6 6 5 5 4 4 4 3 2 2 1 1 1 0 0 0 0 0 1 3 4
12 12 11 11 10 10 10 10 10 10 10 10 10 10 10 11 11 11 11 11 11 11 12 11 11 11 11 10 10 10 9 8 8 7 7 7 6 6 5 5 5 5 5 5 6 6 6 7 7 7 8 8 7 7 7 7 6 6 6 6 6 6 6 6 6 5 5 5 4 4 4 3 3 2 1 1 1 0 0 -0 0 0 0 2 3
12 11 11 11 10 10 10 10 10 10 10 11 11 11 11 11 11 11 12 12 11 11 11 11 11 11 11 10 10 10 9 8 7 7 7 6 6 6 6 5 5 5 5 5 6 6 6 7 7 8 8 8 7 7 7 7 6 6 6 6 6 6 6 6 6 5 5 5 5 5 5 4 3 2 1 1 1 0 0 -0 -0 0 0 0 1
12 11 11 11 11 11 10 10 10 10 10 11 11 11 11 11 11 11 11 11 11 11 11 11 11 10 10 10 10 10 9 8 7 7 7 6 6 6 6 6 6 6 6 5 6 6 7 7 7 8 8 8 7 7 7 6 6 6 6 6 6 6 6 6 5 5 5 5 4 5 5 4 3 2 1 1 1 0 0 -0 -0 0 0 0 0
11 11 11 11 11 11 11 11 10 10 11 11 11 11 11 11 11 11 10 10 10 10 10 10 9 9 9 9 9 9 8 7 7 7 6 6 6 6 6 6 6 6 6 6 6 6 7 7 7 8 8 8 7 7 7 6 6 6 6 6 6 5 6 5 5 5 5 4 4 4 5 4 3 2 2 1 1 1 0 0 -0 0 0 0 0
11 11 11 11 11 11 11 11 11 11 11 11 11 10 10 10 10 10 10 10 10 10 9 9 9 8 8 8 8 8 7 7 7 7 6 6 6 6 6 6 6 6 6 6 6 6 6 7 7 8 8 7 7 7 7 6 6 6 6 6 5 5 5 5 5 5 4 4 4 4 4 4 4 3 2 1 1 1 1 0 0 0 0 0 0
11 11 11 11 11 11 11 11 11 11 11 11 11 10 10 9 9 10 10 10 9 9 9 9 9 8 8 7 7 7 7 7 7 7 6 7 7 7 7 7 7 7 6 6 7 7 7 7 8 8 8 8 7 7 7 7 6 6 6 5 5 5 5 5 4 4 4 4 4 4 4 4 4 4 3 2 1 1 1 1 1 0 0 0 0
12 12 12 12 11 11 11 11 12 12 12 11 11 10 10 9 9 9 9 9 9 9 9 9 8 8 8 7 7 7 7 7 7 7 7 7 7 7 7 7 7 7 7 7 7 7 7 8 8 8 8 8 7 7 7 7 6 6 6 5 5 5 5 4 4 4 4 4 4 4 4 4 5 4 3 3 2 1 1 1 1 0 0 0 0
12 12 12 12 11 12 11 11 12 12 12 12 11 11 10 9 9 9 9 9 9 9 8 8 8 8 8 8 7 7 7 7 7 7 7 7 7 7 7 8 8 8 8 8 7 7 8 8 8 8 8 8 7 7 7 6 6 6 6 5 5 5 5 4 4 4 4 4 4 4 4 4 5 5 4 3 3 2 1 1 1 1 0 0 0
12 12 12 11 11 12 12 12 12 12 12 12 12 11 11 10 9 9 9 8 8 8 8 8 8 8 8 8 8 8 8 7 7 7 7 7 7 7 7 8 8 8 9 8 8 8 8 8 8 8 8 7 7 7 7 6 6 6 5 5 5 5 4 4 4 4 3 3 4 4 4 4 5 5 4 4 3 3 2 2 1 1 1 0 0
12 12 12 11 11 12 12 12 12 12 12 12 12 12 11 11 10 9 9 8 8 8 8 8 8 8 9 9 8 8 8 8 8 8 7 8 7 7 8 8 8 8 9 9 8 8 8 8 8 8 8 7 7 7 7 6 6 6 5 5 5 4 4 4 4 3 3 3 3 4 4 4 5 5 5 4 4 3 3 2 2 1 1 1 1
12 12 12 11 11 11 12 12 12 12 12 12 12 12 12 12 11 10 9 9 9 8 8 9 9 9 9 8 8 8 8 8 8 8 8 8 7 7 8 8 8 8 9 9 9 8 8 8 8 8 8 7 7 7 7 6 6 6 5 5 5 4 4 4 4 3 3 3 3 3 4 4 5 5 5 5 4 4 3 3 2 2 2 1 1
12 12 11 11 11 11 12 12 12 12 12 12 12 12 12 12 12 11 11 10 10 10 9 9 8 8 8 8 8 8 8 8 8 8 8 8 8 7 8 8 8 8 9 9 9 8 8 8 8 8 8 7 7 7 6 6 6 6 5 5 5 4 4 4 3 3 3 3 3 3 4 4 5 5 5 5 5 4 4 3 3 3 2 2 2
12 12 11 11 12 12 12 12 12 12 12 12 12 12 12 12 12 12 12 12 12 12 11 10 9 8 9 9 9 9 8 8 8 8 8 8 8 8 8 8 8 9 9 9 9 9 8 8 8 8 7 7 7 7 6 6 6 6 5 5 5 4 4 4 3 3 3 3 3 3 3 4 4 5 5 5 5 5 5 4 3 3 3 2 2
12 12 11 12 12 12 12 12 12 12 12 12 12 12 12 12 12 12 12 12 12 12 12 11 10 9 10 10 9 9 8 8 8 8 9 9 8 8 9 9 9 9 9 9 9 9 8 8 8 8 7 7 7 6 6 6 6 6 6 5 5 4 4 4 3 3 3 3 3 3 3 4 4 4 4 4 5 5 5 5 4 3 3 3 3
12 12 12 12 12 12 12 12 12 12 12 12 12 12 12 12 12 12 12 12 12 12 12 11 11 11 11 10 10 9 9 8 9 9 9 9 9 9 9 9 9 9 9 9 9 9 8 8 8 7 7 7 6 6 6 6 6 6 6 6 5 5 4 4 3 3 3 3 3 3 3 4 4 4 4 4 5 5 5 5 5 4 3 3 3
12 12 12 12 12 12 12 12 12 12 12 12 12 12 12 12 12 12 12 12 12 12 12 11 12 12 12 11 10 10 9 9 9 9 10 10 10 10 10 10 9 9 9 9 9 9 8 8 8 7 7 7 6 6 6 6 6 6 6 6 5 5 4 4 3 3 3 3 3 3 3 4 4 4 4 4 4 5 5 5 5 5 4 4 3
12 12 11 11 11 12 12 12 12 12 12 11 12 12 12 12 12 12 12 12 12 12 12 12 12 12 12 11 11 10 10 10 10 10 10 10 10 10 10 10 10 9 9 9 9 9 8 8 8 7 7 7 6 6 6 6 6 6 6 6 6 5 4 4 4 3 3 3 3 3 3 3 4 4 4 4 4 4 5 5 5 5 5 4 4
12 11 11 11 11 11 12 12 12 12 12 12 11 12 12 12 12 12 11 12 12 12 11 12 12 11 11 11 11 11 11 10 10 9 9 9 9 10 10 10 10 9 9 9 9 9 8 8 8 7 7 7 6 6 6 6 6 6 6 6 6 5 4 4 4 3 3 3 3 3 3 3 3 3 3 4 4 4 4 5 5 5 5 5 4
12 11 11 11 11 11 11 12 12 12 12 12 11 11 12 12 12 12 12 11 11 11 11 11 11 11 11 11 10 10 10 10 10 10 9 9 9 9 10 10 10 10 9 9 9 9 8 8 8 7 7 7 6 6 6 6 6 6 6 6 6 5 5 4 4 4 3 3 3 3 3 3 3 3 3 3 4 4 4 4 5 5 5 6 5
11 11 11 11 11 11 11 11 12 12 12 12 11 11 11 11 12 12 12 12 12 11 11 11 11 11 11 10 10 10 10 10 10 10 10 10 10 10 10 10 10 9 9 9 9 9 8 8 8 7 7 7 6 6 6 6 6 6 6 6 6 6 5 5 5 4 3 3 3 3 3 3 3 3 3 3 3 3 4 4 4 5 5 6 6
12 11 11 11 11 11 11 11 11 12 12 12 11 11 11 11 11 11 12 12 12 12 12 11 11 11 11 11 10 10 10 10 10 10 10 10 10 10 10 10 10 10 9 9 9 9 8 8 8 7 7 7 7 6 6 6 6 6 6 6 6 6 5 5 5 5 4 3 3 3 3 3 3 3 3 3 3 3 3 4 4 5 5 6 6
12 12 11 11 11 11 11 11 11 12 12 12 12 12 11 11 11 11 11 11 12 12 12 12 12 12 11 11 11 11 10 10 10 11 11 10 10 10 10 10 10 10 9 9 9 9 8 8 8 8 7 7 7 6 6 6 6 6 6 6 6 6 6 5 5 5 4 3 3 3 3 3 3 3 3 3 3 3 3 4 4 5 5 5 6
12 12 12 11 11 11 11 11 11 11 12 12 12 12 12 12 12 12 12 12 12 12 12 12 12 12 12 12 11 11 11 11 11 11 11 11 11 11 10 10 10 10 10 9 9 9 8 8 8 8 7 7 7 7 6 6 6 6 6 6 6 6 6 6 5 5 4 4 4 3 3 3 3 3 3 3 3 3 3 3 4 4 5 5 6
12 12 12 12 12 11 11 11 11 11 12 12 12 12 12 12 12 12 12 12 12 12 12 12 12 12 12 12 12 12 12 12 12 11 11 11 11 11 11 11 10 10 10 9 9 9 9 8 8 8 7 7 7 7 6 6 6 6 6 6 6 6 6 6 5 5 4 4 4 3 3 3 3 3 3 3 3 3 3 3 4 4 4 5 6
12 12 12 12 12 12 12 12 12 12 12 12 12 12 12 12 12 12 12 12 12 12 12 12 12 12 12 12 12 12 12 12 12 12 11 11 11 11 11 11 11 10 10 10 9 9 9 8 8 8 8 8 7 7 7 6 6 6 6 6 6 6 6 6 5 5 5 4 4 4 3 3 3 3 3 3 3 3 3 3 4 4 4 5 5
12 12 12 12 12 12 12 12 12 12 12 12 12 12 12 12 12 12 12 12 12 12 12 12 12 12 12 12 12 12 12 12 12 12 12 12 11 11 11 11 11 11 10 10 10 9 9 9 9 8 8 8 7 7 7 7 6 6 6 6 6 6 6 6 5 5 5 4 4 4 4 3 3 3 3 3 3 4 4 4 4 4 4 5 5
Height
839 840 841 842 843 844 846 847 847 848 848 849 849 850 851 851 851 852 852 852 853 853 853 853 853 853 853 852 852 852 852 851 851 850 850 850 850 850 849 849 849 848 848 847 847 847 846 846 845 845 844 843 843 842 840 839 837 836 834 831 829 827 825 822 818 811 807 806 804 799 796 792 789 787 784 780 778 776 773 771 768 765 762 759 757
838 839 840 842 843 844 846 847 847 848 848 849 850 850 851 851 852 852 852 853 853 853 854 854 854 854 853 853 853 853 853 852 852 852 852 852 851 851 850 850 850 849 849 848 848 848 847 847 846 846 845 845 844 843 842 840 838 836 834 832 829 827 825 822 818 812 807 804 802 799 797 794 789 786 784 780 777 775 772 769 766 764 761 758 755
837 838 840 842 843 844 846 846 847 848 849 850 850 851 851 852 852 852 853 853 854 854 854 854 855 854 854 854 854 854 853 853 853 853 852 852 852 852 852 851 851 850 850 849 849 849 848 848 847 847 847 846 845 844 842 840 839 837 834 832 829 826 825 822 819 814 809 804 802 799 796 794 791 787 784 781 778 775 772 768 765 763 760 756 753
836 838 839 842 843 844 846 846 848 848 849 850 850 851 852 852 852 853 853 854 854 855 855 855 855 855 855 855 855 854 854 854 854 853 853 853 853 853 853 852 852 851 851 851 850 850 849 849 848 848 848 847 845 844 843 841 839 837 834 832 829 826 824 822 820 816 811 806 803 800 797 794 791 787 784 780 777 775 772 769 765 761 758 756 752
835 837 839 842 843 844 846 847 848 849 849 850 851 851 852 852 853 853 854 854 854 855 856 856 856 856 856 856 856 856 855 854 854 854 854 854 854 854 854 853 853 852 852 852 851 851 850 850 849 849 848 847 846 844 842 841 839 836 834 831 829 827 824 822 820 817 813 808 803 800 797 794 791 788 784 780 775 773 771 769 766 761 757 754 751
835 837 839 842 843 845 846 847 848 849 849 850 851 852 852 853 853 854 854 855 855 856 856 857 857 857 857 858 857 857 856 855 854 854 854 854 854 855 855 854 853 853 853 852 852 852 851 851 850 850 849 847 846 844 842 841 838 836 833 831 829 827 824 822 819 816 813 809 804 800 797 794 790 787 784 781 776 771 768 765 764 762 758 753 749
835 837 839 841 843 844 846 847 848 849 850 851 852 852 853 853 854 854 855 855 856 857 857 858 858 859 859 859 858 857 856 855 855 855 854 854 854 854 855 854 854 854 853 853 853 852 852 852 851 850 849 848 846 845 842 840 838 835 833 831 829 826 824 821 819 816 812 808 804 800 796 793 790 786 783 781 777 773 769 764 760 759 758 754 749
835 837 839 841 843 844 846 847 848 849 850 851 852 853 854 854 854 855 855 856 857 858 858 859 860 860 860 860 858 858 857 856 856 855 855 855 854 854 855 855 855 854 854 854 853 853 853 852 852 851 849 848 846 845 843 840 838 835 833 831 828 826 824 821 818 815 812 808 804 800 796 793 789 786 782 780 776 772 770 766 760 756 755 752 749
835 837 839 841 843 844 846 847 848 850 851 852 853 854 854 855 855 855 856 857 858 859 860 860 861 861 861 860 859 858 858 857 857 857 856 856 855 854 855 855 855 855 855 854 853 853 853 852 852 851 850 848 847 845 843 841 838 835 833 830 828 825 823 821 818 815 811 808 804 800 796 793 789 785 781 779 776 772 769 766 761 757 753 749 747
834 837 839 841 843 844 846 847 849 850 851 852 853 854 855 855 856 856 857 858 859 860 861 862 862 862 861 861 860 860 859 859 859 858 857 857 856 856 855 856 856 855 855 854 854 853 853 852 852 851 850 849 847 845 843 841 839 836 833 830 828 825 822 820 817 814 811 808 804 800 796 792 789 786 782 779 777 773 769 766 761 756 753 748 742
834 836 839 841 843 844 846 847 849 850 852 853 854 855 856 856 856 857 858 859 860 861 862 863 863 862 862 862 862 861 861 860 860 859 858 858 857 856 856 856 856 856 855 854 854 854 853 852 852 851 850 849 846 844 843 840 838 835 832 830 828 826 823 820 817 814 811 808 804 801 797 792 788 786 782 778 775 772 769 766 761 756 753 748 740
834 837 839 841 843 844 846 847 849 851 852 853 854 855 856 857 858 858 859 860 861 862 863 864 863 863 863 863 863 862 862 861 861 860 859 858 858 857 856 857 857 856 856 855 854 854 853 852 852 851 850 848 846 844 842 840 837 834 831 829 828 826 823 820 817 814 811 807 804 800 796 792 787 784 781 777 772 768 765 762 759 755 750 747 741
834 836 839 841 843 844 846 847 849 851 852 854 855 856 857 858 859 859 860 861 861 862 863 864 864 865 865 865 865 864 863 862 861 861 860 859 859 858 857 857 857 856 856 855 854 853 852 852 852 850 849 848 846 844 841 839 836 833 831 829 826 824 822 820 817 814 811 807 803 799 795 791 786 782 779 775 770 765 760 756 754 752 746 742 738
833 836 838 841 842 844 846 848 849 852 853 855 856 857 858 859 859 860 860 861 861 862 864 864 865 866 866 866 866 865 864 863 862 861 860 859 859 858 857 857 857 856 856 855 854 853 852 851 851 850 849 847 845 843 841 838 835 832 830 828 825 822 820 817 814 812 809 806 801 797 794 790 786 780 776 773 768 763 757 752 748 745 741 736 732
833 836 838 840 842 844 846 848 850 852 854 855 857 858 859 859 860 860 861 861 862 863 864 865 866 867 867 867 868 867 865 864 863 862 861 860 859 859 858 858 857 857 856 855 854 853 851 851 850 849 848 846 845 843 840 837 834 831 829 826 823 821 818 815 812 809 806 803 799 795 791 788 784 779 773 769 764 759 754 748 743 740 734 728 724
832 835 837 839 842 844 846 848 850 852 854 855 856 858 859 859 860 860 861 862 863 864 865 866 867 868 868 868 868 868 867 865 864 863 862 861 860 859 859 858 857 856 856 855 854 853 851 851 850 849 847 846 844 841 839 836 833 830 827 824 821 819 816 813 810 806 803 800 796 793 789 785 781 775 770 765 759 753 748 742 738 735 728 721 716
831 834 837 839 841 844 846 848 850 852 854 855 856 858 858 859 860 861 861 862 863 865 866 866 867 868 869 869 869 868 867 866 865 864 863 862 861 859 859 859 858 856 855 855 854 853 851 850 849 848 847 845 842 840 837 835 832 828 825 822 819 816 813 810 807 804 800 797 794 790 785 780 776 770 765 760 755 749 742 735 731 728 722 716 711
831 833 836 838 841 843 845 847 849 852 854 855 856 857 858 859 860 861 862 863 864 865 866 867 868 868 869 869 869 868 868 867 866 865 864 863 861 860 860 859 858 857 855 854 854 853 851 850 849 847 846 844 841 839 836 833 830 827 824 821 817 814 811 807 803 800 796 793 790 786 781 775 770 765 759 754 749 745 739 731 726 722 716 711 706
830 832 835 838 840 843 845 847 849 851 853 854 856 857 858 859 860 861 862 863 864 865 866 867 868 869 869 869 869 869 868 867 867 866 865 864 862 861 861 860 859 858 856 855 854 853 852 850 849 847 845 843 840 837 835 832 829 826 823 820 816 813 809 805 800 796 793 789 786 782 776 771 765 760 754 748 743 739 734 727 721 716 709 704 700
828 831 834 837 840 842 844 847 849 851 853 854 855 857 858 859 860 860 862 863 864 865 866 867 868 869 869 869 869 869 868 867 867 866 865 864 863 862 861 861 859 858 857 855 854 853 852 850 849 847 845 842 839 836 834 831 829 826 822 819 816 812 808 804 800 795 791 788 784 779 773 767 760 754 748 742 737 732 727 721 715 709 703 696 693
827 831 834 837 840 842 844 847 849 850 852 854 855 857 858 859 860 860 862 863 864 865 866 867 868 868 869 869 868 868 868 867 867 867 865 864 863 862 862 861 860 858 857 856 854 853 851 850 848 846 843 841 838 835 833 830 828 825 822 819 816 812 807 803 799 795 792 787 782 776 770 763 755 748 742 735 730 724 718 712 706 700 695 688 684
827 830 833 836 839 841 844 846 848 850 852 853 855 856 857 859 860 861 862 863 864 865 866 867 867 868 868 868 868 868 868 867 867 866 866 865 864 863 862 861 860 859 857 856 854 853 851 849 847 845 843 840 837 835 832 830 827 825 822 819 815 811 807 803 799 795 791 786 780 774 767 760 752 744 737 731 725 718 710 703 696 689 683 678 674
826 830 833 836 838 841 844 846 848 850 852 853 854 856 857 858 860 861 862 863 864 865 865 866 867 867 867 868 867 867 867 867 867 866 866 865 864 863 862 861 860 858 857 855 854 852 851 849 846 844 842 839 837 834 832 829 827 824 821 818 814 810 806 803 799 795 790 785 779 772 765 758 751 743 736 729 722 714 706 697 688 680 672 665 661
826 829 832 835 838 841 843 845 848 849 851 853 854 856 857 858 859 861 862 862 863 864 865 865 866 866 867 867 867 867 867 867 867 866 866 865 864 863 862 860 859 858 856 855 854 852 850 848 846 843 841 839 836 834 832 830 827 824 820 817 814 810 806 803 799 795 790 785 779 772 765 759 752 743 736 729 721 713 704 693 683 673 663 653 647
826 829 832 835 838 840 843 845 847 849 851 852 854 855 857 858 859 860 861 861 862 863 864 865 865 866 867 867 867 867 867 867 866 866 865 865 864 862 861 860 858 857 856 855 853 852 850 848 845 843 840 838 836 834 832 830 827 824 820 817 813 810 806 803 799 795 790 785 779 773 767 760 753 746 739 731 722 713 703 692 681 671 660 650 645
825 828 832 834 837 840 842 844 846 848 850 852 853 855 856 857 858 859 860 861 862 862 863 864 865 866 866 866 867 867 866 866 866 866 865 864 863 862 860 859 858 857 855 854 853 851 849 847 844 842 840 838 837 835 832 829 826 823 820 817 814 810 807 804 800 796 791 786 781 775 769 763 756 748 740 732 724 715 705 695 685 675 666 658 653
825 828 831 833 836 839 840 842 845 847 849 851 853 854 855 856 857 858 859 860 861 862 863 864 864 865 866 866 866 866 866 865 865 865 864 863 862 861 860 858 857 856 855 854 852 850 848 846 843 841 840 839 837 835 833 829 826 823 820 817 814 811 808 805 801 797 793 788 782 777 771 765 757 749 741 733 726 718 710 701 692 684 676 668 661
824 827 830 832 835 837 839 841 844 846 848 850 852 853 854 855 856 857 857 858 859 861 862 863 864 865 865 865 866 865 865 865 865 864 864 863 862 861 859 858 857 855 855 853 851 849 847 845 843 842 841 839 837 834 832 830 826 823 821 818 814 811 808 805 802 798 794 790 784 778 772 766 759 751 744 736 729 722 714 706 698 691 684 676 669
824 827 829 831 834 836 838 840 843 845 847 849 850 852 853 854 854 855 856 858 859 860 861 862 864 864 864 865 865 865 865 864 864 864 863 862 861 860 859 858 856 855 854 853 851 849 847 844 843 842 840 838 836 834 832 829 827 824 821 819 815 811 808 806 802 799 795 790 785 779 773 767 761 755 747 740 733 726 719 711 703 697 689 682 678
823 826 828 830 832 834 836 839 842 844 846 847 849 850 852 853 853 855 856 858 859 861 862 862 863 864 864 864 864 864 864 864 864 863 863 862 861 860 859 858 856 855 854 853 851 849 846 844 843 842 840 838 837 835 832 830 828 825 822 819 816 812 809 807 804 801 796 791 786 781 775 770 764 758 751 744 738 731 724 717 710 703 696 691 686
822 824 826 829 831 833 835 838 840 842 845 846 847 849 851 853 854 856 857 858 859 861 862 862 863 863 864 863 863 863 863 863 863 863 862 861 860 859 858 857 856 855 854 852 850 848 846 845 844 842 841 839 837 836 834 831 829 826 823 820 818 814 811 808 805 802 798 793 788 783 778 772 767 762 756 750 744 737 730 724 717 710 705 701 696
820 822 825 828 830 832 834 836 839 841 843 845 846 848 850 852 854 856 857 858 859 860 861 862 862 863 863 863 863 863 863 862 862 862 861 860 860 859 858 856 855 854 853 851 850 848 847 846 844 843 841 840 838 836 834 832 830 828 825 822 819 816 813 810 807 804 800 795 790 786 780 775 770 766 761 755 749 742 736 730 724 719 715 710 705
818 821 823 826 828 831 833 835 837 839 841 843 845 847 849 851 853 855 856 858 859 860 860 861 861 862 862 862 862 862 862 862 861 861 860 860 859 858 857 855 854 853 852 851 849 848 847 846 845 843 842 840 839 837 835 833 831 829 827 824 821 818 816 812 808 805 801 797 793 789 784 778 774 769 764 759 754 748 742 737 732 728 723 718 714
817 819 822 824 827 829 831 834 836 837 839 842 843 845 848 849 851 853 855 856 857 858 859 859 860 860 860 860 861 861 861 861 860 860 860 859 858 857 856 855 853 852 851 850 849 848 848 846 845 843 842 841 839 838 836 834 832 830 828 826 823 820 817 814 810 806 803 799 795 791 786 782 777 773 768 763 758 754 749 744 739 734 730 726 723
816 818 820 823 825 828 830 833 835 836 838 840 842 843 846 847 849 851 852 853 854 855 856 857 857 858 858 859 859 859 859 859 859 859 859 858 858 857 855 854 852 851 850 850 849 848 847 846 845 844 842 841 840 838 836 835 833 831 829 827 824 822 818 815 812 809 805 801 797 793 789 785 780 777 773 768 763 759 754 750 746 742 738 735 732
815 817 819 822 825 827 829 831 834 835 837 839 840 842 843 845 846 848 849 851 852 852 853 854 855 856 856 857 857 858 858 858 858 858 857 857 856 855 854 853 852 851 850 850 849 848 847 846 845 844 843 841 840 838 837 835 834 832 830 828 826 823 820 817 814 811 807 804 800 796 792 788 784 780 776 773 768 764 761 757 753 749 746 742 739
814 816 818 821 824 826 828 830 832 834 836 838 839 841 842 843 845 846 847 848 849 850 850 851 853 854 855 855 855 856 856 856 856 856 856 856 855 854 853 852 851 850 850 849 849 848 847 846 845 844 842 841 840 839 837 836 834 833 831 829 827 825 822 819 816 813 810 806 803 799 795 791 788 784 780 776 773 769 766 763 759 756 752 749 745
813 815 817 820 823 825 827 829 831 833 835 837 838 840 841 842 843 845 846 847 847 848 848 849 850 851 851 851 852 853 854 855 855 854 853 853 853 852 852 851 850 850 849 848 848 847 846 845 844 843 842 841 840 839 837 836 834 833 831 829 827 825 823 820 817 815 812 809 805 801 798 794 791 788 784 781 777 774 770 767 765 762 758 755 751
812 814 817 819 821 824 826 828 829 831 834 835 837 838 839 841 842 843 844 845 845 846 847 847 848 848 848 848 850 851 852 853 852 852 851 851 851 850 850 850 849 849 848 848 847 846 846 845 844 843 842 841 840 839 837 836 834 833 831 829 828 826 823 821 818 815 813 811 808 804 801 797 794 791 788 784 781 778 775 772 769 767 764 761 758
812 813 815 818 820 823 825 827 828 830 832 834 836 837 838 839 841 842 843 843 844 844 845 846 846 846 846 846 847 849 850 850 850 850 850 849 849 849 849 848 848 847 847 846 846 845 845 844 843 842 842 841 839 838 837 836 834 833 831 829 828 826 824 822 820 817 815 812 810 807 804 801 798 794 791 787 785 783 780 776 774 771 769 767 764
811 812 814 817 820 822 824 825 827 829 831 833 834 835 836 838 839 840 841 842 842 843 843 844 844 845 844 844 845 846 847 848 848 848 848 848 847 847 847 846 846 846 845 845 845 844 844 843 842 842 841 840 839 838 836 835 834 832 831 829 828 826 824 823 821 818 816 813 811 808 806 803 801 797 794 791 788 786 784 781 778 776 773 771 770
810 811 813 816 819 821 823 824 826 828 830 832 833 834 835 836 838 839 840 840 841 841 841 842 842 843 843 843 844 844 845 845 846 846 846 846 846 845 845 845 844 844 844 843 843 843 842 842 841 840 840 839 838 837 836 835 833 832 830 829 827 825 824 823 821 819 817 815 812 809 807 806 803 800 798 795 792 789 786 784 782 780 778 776 774
809 810 812 815 818 820 822 823 825 827 828 830 831 833 834 834 836 837 838 838 839 839 840 840 841 841 841 842 842 842 843 843 843 844 844 844 844 843 843 843 842 842 842 842 841 841 841 841 840 839 839 838 837 836 835 834 833 831 830 829 827 825 824 823 821 820 818 815 813 811 809 807 805 803 800 797 794 792 790 787 785 783 782 780 778
808 810 812 815 817 820 822 823 824 825 827 828 830 831 832 833 834 835 835 836 837 837 838 838 839 839 839 839 840 840 841 841 841 841 841 841 841 841 841 841 841 841 840 840 840 840 839 839 838 838 837 836 836 835 834 833 832 831 830 828 826 825 823 823 821 820 818 816 814 812 810 808 807 805 802 799 797 795 792 790 788 786 784 783 781
808 809 811 814 816 819 820 822 823 824 825 826 828 829 830 831 832 833 833 834 834 835 835 836 837 837 837 837 838 838 838 838 839 839 839 839 839 839 839 839 839 839 838 838 838 838 838 837 837 836 836 835 834 833 833 832 831 830 829 828 826 824 823 822 821 820 819 817 815 813 811 809 808 806 804 802 800 797 795 793 790 788 786 785 784
807 809 810 813 815 817 819 820 821 822 823 824 826 827 828 829 830 831 831 831 832 832 833 833 834 835 835 835 835 835 835 836 836 836 836 836 836 836 836 836 836 836 836 836 836 836 836 836 835 835 834 833 832 832 831 831 830 829 828 828 826 824 822 822 821 820 819 817 815 814 812 810 809 808 806 804 802 799 797 795 793 791 789 787 786
806 807 809 811 813 815 817 818 819 820 821 822 823 824 825 826 827 828 829 829 830 830 830 830 831 831 832 832 833 832 833 833 833 833 833 833 833 833 834 833 833 834 834 834 834 834 834 834 833 833 832 831 831 830 829 829 828 828 827 827 825 824 822 821 821 819 818 817 816 814 812 811 809 808 806 805 803 801 799 796 795 793 791 789 788
805 806 808 809 811 813 815 816 817 818 819 820 821 822 823 824 824 825 825 826 826 827 827 828 829 829 829 829 829 829 829 830 830 830 830 830 830 831 831 830 830 831 830 831 831 831 831 831 831 830 830 830 829 828 828 827 826 826 826 825 824 823 822 821 820 819 818 817 815 814 813 811 810 808 807 805 804 802 800 798 796 794 793 791 790
803 805 806 807 809 811 812 813 815 816 816 817 818 819 820 821 821 822 822 823 823 824 824 825 825 826 826 826 827 827 827 827 827 827 827 827 827 828 828 827 827 826 826 825 826 826 826 827 827 827 827 827 826 826 825 825 824 824 824 823 822 822 821 820 819 818 817 816 815 813 812 811 810 809 807 806 804 803 802 800 798 796 794 792 791
802 803 804 806 807 808 809 811 812 813 814 815 816 816 817 818 818 819 820 820 820 821 821 821 822 822 823 823 823 824 824 824 824 824 824 824 824 824 824 823 823 822 822 821 821 822 822 823 823 823 823 823 823 823 823 822 822 822 821 821 820 820 819 819 818 817 816 815 813 812 811 810 809 808 807 806 805 804 802 801 799 797 795 794 792
800 801 802 804 805 806 807 808 808 810 811 811 812 813 814 815 815 816 816 817 818 818 819 819 819 819 819 820 820 820 820 820 821 821 821 821 821 821 821 821 820 820 819 819 818 818 818 819 819 819 819 819 819 820 819 819 819 819 819 819 818 817 817 817 816 816 815 813 812 811 810 809 809 808 807 806 805 804 802 801 800 798 797 795 794
Wind_Speed
16 16 16 16 17 17 16 15 15 15 15 15 16 15 14 14 13 13 13 13 12 12 12 12 12 12 13 13 13 13 13 13 13 13 13 13 13 13 13 13 14 13 14 14 14 15 15 15 16 18 18 18 20 20 20 21 22 21 21 21 23 22 22 22 16 16 24 28 28 30 32 33 32 31 33 34 33 33 34 33 32 32 32 32 30
17 17 18 18 17 16 16 15 15 16 16 16 15 15 14 14 13 13 13 13 12 12 12 12 12 13 13 14 14 14 13 13 13 13 13 13 12 13 13 13 13 13 13 14 15 15 15 15 17 18 18 18 19 19 19 20 21 21 22 22 23 24 23 23 21 19 23 28 30 29 30 31 32 32 33 33 34 34 34 34 32 31 31 33 33
18 18 18 18 17 16 16 16 16 16 16 16 15 15 14 14 13 13 13 13 13 13 13 12 13 13 14 14 14 14 14 13 13 13 13 12 12 12 13 12 13 13 14 14 14 15 14 15 17 18 18 18 19 18 19 20 20 21 23 24 24 25 24 23 23 22 23 26 29 29 29 29 31 32 33 33 34 33 32 33 33 33 32 33 34
18 18 18 17 17 17 17 16 16 16 16 16 15 15 15 14 14 13 13 13 13 13 13 13 13 14 14 14 15 15 14 13 13 13 13 12 12 12 12 12 12 13 13 14 14 14 15 16 17 17 16 17 18 19 19 20 21 22 24 25 24 24 24 23 23 23 23 25 26 27 28 29 29 30 33 33 33 32 31 32 33 34 33 32 33
19 19 19 18 17 17 17 17 16 16 16 16 15 15 15 14 14 14 13 13 13 13 13 13 14 14 14 14 15 15 15 13 13 13 12 11 11 11 11 11 11 12 13 13 14 14 15 15 16 15 15 16 18 19 20 21 22 24 25 24 23 23 23 24 23 23 24 25 27 27 28 28 27 28 30 32 33 33 32 31 30 31 32 33 34
20 20 19 18 18 18 17 17 17 16 16 16 15 15 15 14 14 14 13 13 13 13 13 13 14 14 14 14 14 15 15 14 13 12 10 10 10 10 11 11 11 12 12 12 13 14 14 14 14 14 15 17 18 18 19 22 24 25 25 23 23 23 24 24 24 24 25 26 27 27 27 27 27 27 28 30 32 33 33 32 29 28 30 34 35
20 20 19 19 18 18 17 16 16 16 16 16 15 15 14 14 14 14 13 13 13 13 13 13 13 14 14 15 15 15 16 16 15 13 11 10 10 11 10 10 11 11 11 12 12 12 13 12 13 14 16 16 16 17 22 26 26 25 24 23 22 23 24 25 25 26 26 26 26 26 27 27 27 28 29 30 30 30 30 31 30 29 30 31 33
21 20 20 19 18 18 17 16 16 16 16 16 15 15 15 14 14 14 14 14 13 13 13 13 13 13 14 15 16 16 16 16 16 15 12 10 10 11 10 10 11 11 10 10 10 11 12 13 13 14 16 15 15 19 26 28 27 26 25 23 23 24 24 25 26 26 26 26 26 26 27 27 28 29 30 29 28 27 28 29 30 31 31 30 31
20 20 19 18 18 18 17 17 17 16 16 15 15 15 15 15 15 14 14 14 13 13 13 13 13 13 14 15 16 17 16 15 15 14 13 11 11 10 10 9 9 10 10 9 9 10 11 13 14 13 16 17 16 21 27 27 27 27 26 25 26 25 25 24 25 26 26 25 26 27 27 26 27 29 29 27 27 29 31 30 29 30 32 33 32
21 20 19 18 18 18 17 17 17 16 16 15 15 15 15 15 15 14 14 14 13 12 12 13 13 14 15 15 16 18 16 14 12 11 11 11 11 10 10 10 9 9 11 9 9 10 10 12 14 14 15 17 17 21 26 27 28 27 23 24 26 25 25 24 24 25 25 24 26 27 25 25 27 29 29 29 30 30 30 30 30 31 31 30 30
21 20 19 19 19 18 18 17 17 16 16 15 15 15 14 15 15 14 14 14 13 12 11 12 13 14 16 16 16 17 16 12 10 10 9 9 9 9 10 10 9 9 11 11 10 11 12 14 16 14 15 17 17 22 26 28 30 27 22 22 23 23 25 25 25 26 25 24 26 26 25 26 28 30 30 31 33 32 32 32 32 32 29 24 24
21 20 20 19 19 18 18 18 17 16 16 15 15 15 14 14 14 14 14 13 12 12 11 11 12 12 15 17 17 17 16 12 9 9 9 8 9 9 9 9 8 8 11 11 10 10 12 15 15 14 16 17 17 23 27 29 31 28 22 22 22 23 25 25 25 27 27 26 27 26 26 27 28 31 33 34 35 36 37 36 34 32 29 26 25
21 21 20 19 19 19 18 18 17 16 16 16 15 15 14 14 14 14 14 13 13 12 11 11 11 10 12 16 17 18 17 13 8 7 8 8 9 9 8 8 7 8 9 11 10 8 10 14 14 14 17 16 17 23 27 30 32 28 23 23 23 23 24 23 24 28 29 28 27 28 30 31 30 35 39 38 38 39 37 36 35 32 30 29 31
22 21 20 20 19 19 18 18 18 17 17 16 15 14 14 14 13 13 13 13 13 12 11 10 10 10 10 13 17 18 18 16 11 7 7 9 10 10 10 8 8 8 8 12 12 8 10 14 14 14 17 17 19 24 27 30 32 28 24 24 24 24 23 24 27 30 31 29 28 29 33 35 34 38 42 42 42 41 39 39 38 36 35 36 39
22 21 21 20 19 19 19 19 18 17 16 16 15 14 13 13 13 13 12 13 13 12 11 10 9 9 9 10 15 18 19 18 14 9 8 9 11 12 12 9 9 8 8 12 13 9 11 15 13 13 16 18 21 25 27 30 33 29 25 26 27 25 25 27 29 31 32 31 29 30 35 37 38 40 43 45 46 45 44 44 43 40 40 40 39
22 22 21 21 20 20 20 19 18 17 16 16 15 14 13 13 13 13 13 12 12 12 11 10 9 8 8 8 12 17 19 19 17 13 10 9 12 14 13 11 10 11 10 13 13 10 12 15 13 12 17 21 25 27 28 30 33 31 28 28 29 27 27 30 31 32 33 32 30 33 38 40 41 41 43 45 46 46 46 44 39 36 34 30 29
23 23 22 21 21 21 20 19 19 17 17 16 15 14 14 13 12 12 12 12 11 11 11 11 10 9 7 6 8 15 19 19 18 17 14 11 12 14 14 13 13 13 13 14 13 12 13 14 11 14 21 25 28 29 29 31 33 33 31 30 30 28 28 32 34 35 35 32 30 36 41 43 43 44 44 44 44 44 42 38 33 31 28 20 17
24 23 22 22 21 21 20 19 19 18 17 16 15 14 13 12 11 11 11 11 10 10 10 10 10 10 9 7 5 8 15 18 18 18 17 14 13 13 14 15 15 15 15 15 13 12 14 14 13 17 24 28 29 30 31 32 33 34 33 32 29 27 30 36 38 39 36 31 32 40 45 47 47 46 46 45 44 43 40 36 35 33 28 20 16
25 24 23 22 21 21 21 20 19 18 17 16 15 14 13 12 12 11 11 10 10 10 9 9 8 7 8 8 6 4 8 13 16 18 17 15 14 14 13 15 16 16 16 17 15 13 14 15 16 19 25 29 30 31 32 32 33 34 33 32 28 27 33 39 40 40 36 31 35 43 46 48 48 46 45 45 44 43 40 38 39 36 31 27 23
25 24 24 23 22 21 21 20 19 18 17 16 15 14 12 11 10 10 10 10 10 9 8 8 7 6 5 5 5 4 4 8 12 16 17 16 15 15 13 14 16 17 16 17 17 15 15 16 17 20 25 28 30 31 32 32 32 31 31 30 29 31 37 40 39 36 33 33 38 43 45 47 48 46 46 45 44 44 42 41 41 39 36 34 29
25 25 24 23 22 21 21 20 19 18 17 16 15 13 12 11 10 9 9 9 8 8 7 7 7 6 5 4 3 1 3 5 9 14 17 15 15 15 14 14 16 17 16 16 17 16 17 18 19 21 25 27 28 30 32 32 30 30 31 31 32 35 38 37 35 33 33 35 40 43 45 47 48 48 48 47 45 47 48 47 45 42 38 36 33
26 25 24 23 23 22 21 20 19 18 17 16 15 13 12 11 10 10 9 8 7 6 5 6 6 5 6 5 4 3 1 3 7 12 16 16 15 15 14 14 16 17 16 17 17 16 18 19 20 22 25 27 28 29 31 31 30 31 32 33 34 35 34 33 33 34 35 37 39 42 44 45 46 48 49 47 47 50 52 50 47 43 37 35 35
26 25 24 24 23 22 22 21 19 18 17 15 14 13 12 11 10 10 10 9 8 7 6 6 5 4 5 4 3 3 1 2 6 12 15 16 15 14 13 13 15 17 18 18 16 16 18 19 20 23 26 27 26 28 30 30 30 32 32 32 33 34 32 31 33 35 36 37 38 41 43 44 44 46 46 46 48 50 50 50 48 45 40 36 34
26 25 25 24 24 23 22 20 19 18 17 15 14 13 12 11 10 9 9 9 8 8 7 5 4 4 4 3 3 3 3 3 6 11 14 14 14 13 13 14 15 16 16 16 15 16 18 19 21 24 25 24 25 28 29 29 30 32 32 31 33 33 31 30 33 35 35 36 38 39 42 44 45 46 46 47 49 50 50 52 52 48 43 35 24
26 26 25 24 24 23 21 19 18 18 17 15 14 13 12 11 10 8 8 7 7 6 6 5 4 4 3 3 3 4 4 4 6 9 12 12 13 13 13 14 14 14 14 14 15 17 18 20 21 21 22 23 24 27 28 29 30 32 31 31 32 32 31 31 34 34 34 35 37 39 41 45 47 48 47 47 49 50 51 55 56 52 48 39 20
26 26 25 24 24 22 21 20 19 18 16 14 13 13 11 11 10 9 8 7 6 5 5 5 5 4 3 2 2 3 4 4 4 8 11 12 13 14 14 13 14 14 13 14 16 18 19 20 19 20 21 22 23 26 28 29 30 31 31 31 32 32 31 32 33 33 34 36 38 38 41 45 48 48 46 45 46 48 49 52 54 52 47 40 29
26 25 24 24 24 22 21 21 19 18 16 14 13 13 11 10 10 9 9 8 7 6 5 4 4 4 4 3 1 3 5 3 5 8 10 12 13 14 14 13 14 15 14 16 18 20 21 20 19 20 21 22 23 25 27 28 30 31 31 32 33 32 31 32 33 33 34 37 38 38 41 44 46 46 46 44 45 47 48 48 48 47 44 39 33
26 25 24 24 23 22 22 21 20 18 16 14 13 12 11 11 10 8 7 7 7 6 6 6 4 2 3 3 2 2 4 3 5 8 9 11 13 13 12 13 15 15 16 18 20 21 21 20 19 20 21 21 23 25 26 28 29 30 30 32 34 34 32 33 34 35 36 38 39 38 40 43 43 44 44 43 43 46 48 47 44 42 43 40 36
26 25 24 24 23 22 22 21 19 18 16 13 12 10 9 10 11 10 8 7 6 7 8 8 5 3 3 3 2 2 2 2 5 6 7 9 11 11 10 12 13 14 16 18 20 21 21 20 19 20 21 21 22 25 26 27 28 29 31 32 34 34 33 33 34 35 37 39 39 38 39 40 41 43 42 42 43 45 48 49 45 41 42 40 38
26 25 24 23 23 23 23 21 19 18 16 15 14 12 9 9 10 10 8 7 6 6 7 6 6 5 5 3 2 2 1 2 4 5 6 8 9 8 8 10 12 13 15 17 20 21 21 19 18 19 21 21 22 24 26 26 27 29 31 32 34 34 34 35 35 35 37 39 38 39 40 38 38 41 41 40 41 43 46 48 46 43 42 38 36
25 24 23 23 23 23 23 21 19 18 17 16 17 15 11 11 10 7 5 6 7 8 7 6 6 7 6 3 3 2 1 1 3 4 6 7 7 6 7 9 10 12 14 17 18 19 18 17 17 19 20 20 21 23 25 25 25 27 29 31 33 32 33 36 36 35 37 39 38 39 40 38 36 39 40 39 39 39 42 45 45 43 41 38 34
25 24 23 24 24 23 22 21 19 19 18 16 16 17 14 12 11 7 4 6 8 8 7 6 6 8 8 6 5 3 1 2 3 4 6 7 6 6 7 10 11 11 13 15 16 16 16 16 17 18 19 20 21 23 24 24 24 26 27 30 31 31 32 35 36 35 36 38 37 38 40 39 36 37 39 40 38 37 38 40 41 41 39 37 36
25 24 23 25 25 22 21 20 18 18 19 17 16 17 15 14 14 11 9 10 10 9 8 8 6 6 7 6 4 3 2 3 3 4 5 6 6 6 8 11 11 10 11 11 11 12 14 16 16 17 18 19 20 22 23 23 24 25 26 28 29 30 32 35 35 36 37 37 36 36 39 39 37 35 37 39 38 36 36 36 37 37 36 35 35
25 24 24 27 25 20 21 21 18 16 19 18 17 18 17 16 17 17 16 15 14 12 12 11 9 7 6 4 3 2 2 2 3 4 4 5 6 7 9 11 11 10 10 9 8 10 14 15 15 16 17 18 19 21 22 22 23 24 25 27 28 29 32 35 35 36 38 37 36 36 38 38 37 35 35 37 37 36 35 35 36 35 34 33 33
25 24 24 27 25 19 19 21 19 16 18 18 17 19 20 20 22 21 19 18 18 17 16 15 13 11 8 6 4 3 2 2 2 2 3 4 6 8 10 11 12 12 11 10 9 11 14 14 14 15 16 17 18 20 20 21 22 23 25 26 27 29 32 34 34 35 37 36 36 37 37 38 38 36 34 34 35 35 34 35 35 34 33 31 30
24 24 24 27 25 19 17 20 19 17 16 17 16 16 17 19 23 23 21 20 20 18 18 17 15 13 11 9 7 6 4 3 2 3 3 3 5 8 10 12 14 13 11 9 10 12 13 13 14 15 16 16 17 18 19 19 20 22 24 25 26 28 32 32 32 34 35 35 35 36 37 37 38 37 34 33 34 34 33 34 34 34 34 32 29
23 24 24 24 25 21 17 17 19 18 16 16 16 15 14 14 17 17 17 18 18 17 17 18 17 15 14 14 12 10 7 5 4 5 7 6 6 9 11 12 14 13 10 9 10 11 12 12 13 14 15 16 17 18 18 18 19 21 23 24 24 27 30 30 30 31 33 34 34 36 36 35 36 37 35 32 33 33 33 33 33 33 35 36 32
21 24 23 22 23 22 18 15 17 18 17 16 16 16 14 13 14 13 13 13 14 12 12 16 20 20 18 16 15 12 9 8 8 10 11 10 9 9 10 11 12 11 9 8 9 10 11 11 12 13 14 15 16 16 18 18 18 20 22 22 23 26 29 30 30 31 31 32 33 35 36 35 35 36 35 32 31 32 32 32 32 31 32 34 33
20 23 25 22 20 21 19 16 16 17 17 16 15 15 15 14 14 14 13 12 12 11 9 11 16 18 18 17 15 14 13 13 13 13 13 12 11 10 9 10 10 9 8 8 9 9 9 10 11 12 13 14 15 15 17 17 18 19 20 20 21 25 27 28 30 31 31 30 31 32 35 35 34 34 35 34 31 32 32 31 31 31 30 30 32
20 23 27 24 18 17 18 18 17 17 17 16 15 14 15 14 14 14 14 12 12 12 11 12 13 13 14 15 15 15 14 14 13 12 12 12 11 10 9 9 9 9 8 8 8 8 9 9 10 11 12 13 14 14 16 17 17 18 19 18 19 22 25 26 28 29 29 30 30 30 32 34 33 32 35 36 33 31 31 30 30 30 29 29 30
20 23 29 28 21 16 15 17 17 17 18 18 16 14 14 15 14 14 13 13 12 12 12 12 12 11 11 12 13 14 13 11 10 10 11 12 11 10 10 10 9 9 9 9 8 8 9 9 9 10 11 13 14 14 15 16 17 17 18 17 16 18 22 25 27 27 28 30 30 29 30 32 31 30 33 35 33 32 31 29 28 29 29 28 28
20 24 30 29 24 18 15 15 17 17 18 19 18 15 14 15 15 14 13 12 12 11 11 11 11 11 11 12 13 13 13 12 10 10 11 13 13 12 11 11 10 10 10 10 9 8 9 9 9 10 10 12 13 14 15 16 16 17 18 17 15 16 19 24 26 27 26 28 29 28 28 30 30 29 30 32 32 32 32 30 27 27 27 27 26
21 25 29 28 24 19 16 15 17 18 17 18 18 16 14 14 15 15 15 14 13 12 11 10 11 11 12 14 14 15 15 13 11 11 13 14 14 13 13 12 11 11 10 9 9 8 9 9 10 10 11 11 12 13 14 15 15 16 17 16 14 13 16 22 25 25 25 27 28 26 26 28 28 28 29 31 30 31 32 32 29 25 24 24 24
22 25 27 26 23 21 17 15 16 17 17 18 18 17 16 15 14 15 16 16 15 15 14 13 12 12 13 14 16 15 14 13 12 13 14 15 15 15 15 13 11 11 11 11 10 10 10 11 11 12 12 13 13 13 13 13 14 15 16 16 14 12 13 19 23 23 24 26 26 24 24 26 26 26 27 29 29 29 30 31 31 27 22 21 21
21 24 25 24 23 22 20 17 16 16 17 18 18 18 17 16 15 14 14 15 15 15 15 15 15 14 13 14 16 17 16 15 14 15 16 17 17 16 15 13 13 13 13 12 12 11 11 12 13 13 14 16 16 15 13 12 13 14 15 15 14 12 12 16 21 21 21 23 24 22 22 23 25 25 26 26 27 28 28 28 29 29 25 21 19
21 22 24 24 23 22 21 19 18 17 17 17 17 17 17 17 17 16 15 15 14 14 15 15 16 17 16 16 17 18 18 17 16 17 18 18 17 15 14 14 14 13 12 12 12 12 12 13 15 16 17 18 17 15 14 14 13 13 13 13 13 12 12 15 20 20 19 20 22 21 20 20 23 25 25 24 25 26 26 26 27 27 25 23 20
21 21 23 23 23 22 22 21 20 19 18 18 18 18 18 18 18 18 17 17 17 16 15 15 15 16 18 18 19 19 19 19 18 18 17 16 16 16 15 15 15 14 13 13 13 13 14 15 16 16 17 18 17 17 18 17 15 13 12 12 13 14 15 16 19 19 18 18 19 19 18 18 20 23 24 23 23 25 24 24 25 26 24 22 22
20 20 20 22 22 22 21 22 21 20 19 18 18 19 19 18 18 18 19 19 19 19 18 17 17 17 17 18 19 19 20 20 20 19 18 17 17 16 16 16 16 17 16 17 17 17 17 18 18 17 18 19 19 20 21 19 16 13 12 13 14 16 17 17 19 19 17 16 17 18 17 16 17 20 22 22 21 22 23 22 23 25 25 21 19
20 21 19 19 21 21 21 22 22 21 20 19 18 18 19 18 17 17 17 17 18 20 20 20 20 19 19 18 18 18 18 19 19 18 18 18 17 16 16 18 19 19 20 20 20 19 19 19 19 19 19 20 21 22 22 21 19 16 15 14 15 17 18 19 20 19 17 15 15 16 16 16 15 16 19 21 20 20 22 22 21 23 25 22 18
18 21 19 18 20 20 21 21 21 20 20 20 19 18 19 19 18 18 18 17 17 17 18 18 19 20 20 20 20 20 20 19 19 19 19 19 18 18 20 22 23 23 23 22 21 21 21 21 21 21 20 20 21 23 23 22 21 20 17 16 16 17 18 19 19 19 17 15 14 15 15 16 14 13 15 18 18 19 21 22 20 21 23 22 19
15 17 18 19 19 19 19 19 20 19 19 20 20 19 19 19 18 18 19 19 19 18 18 18 18 18 18 19 19 19 20 20 20 19 19 19 17 18 20 22 22 22 22 21 21 22 22 22 22 22 21 21 21 22 23 24 24 23 20 18 18 19 19 18 18 18 17 15 14 14 15 15 13 12 13 15 16 16 18 19 18 18 20 20 18
Wind_Direction
131 131 131 129 126 125 124 122 119 115 112 109 105 102 100 98 95 92 87 83 80 76 73 69 64 60 57 53 51 48 45 45 45 44 44 43 42 40 37 37 38 35 34 34 30 28 25 24 25 20 18 17 12 7 3 358 354 351 347 342 337 335 332 325 316 310 314 318 320 320 322 325 326 326 326 325 326 326 325 323 321 321 319 316 313
132 130 128 126 125 124 121 118 115 112 109 106 104 102 99 97 95 91 87 82 79 76 73 70 64 60 56 53 50 47 45 45 44 42 41 42 41 39 36 37 36 33 35 34 29 28 26 25 27 22 18 15 10 5 359 354 351 346 343 339 333 330 329 324 319 314 314 319 321 322 325 327 326 325 326 325 325 325 324 323 322 320 318 315 313
132 129 128 126 125 122 119 116 113 111 109 106 105 103 100 99 96 91 87 83 79 77 73 70 66 60 56 51 47 44 43 43 42 40 39 38 38 38 36 36 35 33 35 35 30 27 25 27 28 22 16 12 5 -0 354 349 347 343 338 336 331 327 328 327 323 318 316 318 321 322 325 326 323 324 324 322 322 323 322 321 320 318 316 313 313
133 131 129 127 124 121 118 116 114 111 109 107 105 104 100 98 95 92 89 85 81 78 74 70 65 60 56 49 43 41 39 40 43 41 38 39 40 37 35 36 36 34 34 36 33 26 24 28 29 21 13 8 0 354 349 345 344 340 335 333 331 328 328 328 325 321 318 318 320 322 322 322 321 321 322 321 321 322 321 319 318 317 317 315 314
133 131 130 127 124 121 118 116 114 111 109 107 104 103 100 97 94 92 90 86 82 79 75 70 65 60 54 47 42 39 38 41 48 46 40 39 39 36 35 36 37 36 35 35 34 29 25 26 26 18 8 360 354 350 348 346 342 338 334 333 332 331 330 329 326 324 321 318 319 319 319 319 319 319 320 320 320 320 318 317 317 316 316 316 314
133 132 130 127 124 122 119 117 114 111 109 107 104 102 99 97 94 91 89 87 83 80 76 71 66 59 53 47 42 40 41 46 53 55 50 42 38 35 33 36 38 37 35 36 36 30 24 22 18 10 1 353 350 353 353 349 344 339 336 335 335 334 332 329 328 325 322 319 317 318 320 320 319 319 321 321 318 317 317 316 316 315 314 315 314
134 132 130 128 125 122 120 117 115 112 109 107 105 102 99 96 92 89 89 87 84 81 79 74 67 61 54 45 41 43 47 47 49 55 57 50 45 38 30 33 38 35 32 34 33 27 22 18 10 1 357 353 354 1 359 352 346 341 338 337 336 334 330 328 328 325 322 321 319 319 319 319 319 317 318 318 316 314 316 316 315 315 314 312 311
135 132 130 128 125 122 121 118 116 113 110 108 105 101 98 95 91 88 87 85 83 82 82 79 72 64 54 44 42 46 49 45 43 46 50 48 48 42 31 30 34 33 29 26 26 25 21 13 4 0 2 1 -0 1 356 351 347 342 339 337 334 331 329 328 328 327 324 322 321 320 319 318 317 316 317 319 317 316 317 314 310 311 311 308 307
135 132 130 128 126 124 122 120 117 115 112 108 104 102 99 95 92 89 87 86 84 84 84 81 75 66 55 46 42 45 46 42 37 38 39 42 45 42 34 28 28 28 22 18 21 22 16 9 3 3 8 3 354 350 350 350 349 343 339 338 334 331 330 330 330 329 327 325 323 322 320 318 317 318 319 320 318 316 316 313 308 308 309 306 303
135 133 131 130 129 127 124 123 120 116 113 109 106 103 99 97 94 91 89 87 85 85 84 82 76 66 57 49 42 42 42 40 39 38 35 36 38 38 34 24 21 24 14 7 16 16 12 14 8 1 3 360 349 346 350 352 350 345 343 342 338 335 332 331 331 331 328 327 326 323 321 317 317 319 318 318 318 316 317 315 311 309 308 305 300
136 134 133 133 132 130 128 126 122 118 115 111 108 105 101 97 94 92 90 88 87 88 86 83 78 66 57 50 43 39 36 36 43 46 44 42 35 33 34 23 18 23 11 1 12 18 13 13 8 357 356 357 351 352 355 354 352 350 349 348 344 340 337 334 333 333 330 327 326 324 319 315 316 317 316 316 316 314 312 310 307 305 304 300 298
137 136 137 137 135 133 131 128 124 121 118 115 112 109 104 100 98 95 92 90 89 89 86 84 83 70 55 48 42 39 35 33 40 45 48 49 35 28 31 25 17 18 10 360 9 20 11 4 3 357 355 355 352 353 354 353 354 354 351 347 345 344 344 343 341 340 334 327 323 321 317 314 312 312 312 311 310 309 307 303 301 299 296 292 291
140 140 141 140 137 136 134 130 127 124 120 119 116 113 109 105 102 98 95 93 89 86 85 84 85 77 58 45 41 40 36 32 33 43 45 43 36 29 26 20 11 10 10 358 357 16 17 6 1 356 354 353 348 349 351 351 353 354 349 343 340 341 345 345 342 340 336 328 320 315 314 313 308 307 309 309 308 307 305 302 301 298 291 287 286
143 143 143 141 140 138 136 133 129 126 125 125 123 119 116 111 108 103 98 93 88 85 85 85 86 86 70 49 42 41 39 35 34 43 45 40 40 34 23 14 3 3 12 -0 350 7 23 9 358 352 353 351 346 346 349 349 349 349 345 340 335 333 337 337 334 335 337 332 322 316 317 316 311 308 310 310 307 305 303 301 300 297 291 287 285
145 145 144 143 141 140 137 134 134 134 135 133 128 125 121 117 113 108 102 97 93 89 87 86 88 91 84 61 45 40 41 40 39 44 44 40 42 34 20 13 4 355 7 3 351 358 16 6 355 351 351 350 348 348 348 347 346 343 338 335 332 328 330 333 330 329 331 330 326 324 324 322 317 312 311 310 307 305 303 299 296 294 290 286 283
146 146 146 144 143 142 140 141 141 141 139 134 130 127 124 120 116 111 106 102 98 93 88 85 86 92 94 77 50 42 43 43 42 44 42 39 45 36 19 13 5 347 349 3 358 355 2 360 356 355 354 352 351 351 351 347 345 340 333 332 330 324 325 332 330 326 326 326 325 328 328 325 322 317 314 313 310 307 305 300 297 293 286 282 279
148 148 148 147 147 147 147 146 144 142 139 136 132 129 126 123 121 118 115 112 109 105 97 88 86 91 100 98 58 43 43 42 39 40 41 41 45 36 19 11 4 348 345 357 358 353 352 356 1 359 354 352 351 352 352 348 343 339 332 329 327 321 324 332 330 327 327 323 321 327 329 327 326 323 320 317 314 311 306 300 299 297 287 279 277
150 150 151 151 151 150 149 146 144 143 142 138 134 133 130 127 125 122 119 119 119 119 114 105 96 91 95 108 94 43 39 39 34 32 35 38 44 39 22 11 4 356 350 350 350 353 352 352 356 352 348 350 351 350 350 346 341 337 332 328 324 321 326 331 330 328 327 323 324 329 330 329 328 326 323 320 318 316 309 301 301 299 288 279 277
153 154 154 153 152 150 148 147 146 144 141 137 136 135 132 130 131 129 128 128 127 126 128 128 122 108 97 99 105 67 29 29 27 24 24 30 40 40 24 10 4 358 350 344 345 353 353 347 345 345 347 352 352 349 347 344 339 335 332 327 322 323 328 331 331 330 327 325 328 330 329 328 327 325 324 322 320 320 314 307 304 298 287 281 277
155 154 152 152 150 150 149 148 146 143 140 139 137 137 136 137 139 138 135 132 130 129 131 138 144 149 139 115 105 88 29 14 18 19 17 22 33 35 24 10 3 355 348 343 341 345 350 347 339 339 345 349 348 347 346 343 339 337 336 330 324 325 330 330 331 333 331 329 331 329 327 328 327 326 325 323 323 323 320 314 308 299 289 282 275
153 151 152 152 151 150 149 148 145 142 141 140 138 137 137 136 135 131 124 123 129 138 147 151 155 163 174 183 183 122 28 7 10 15 15 18 26 26 17 5 359 355 348 342 337 338 344 341 332 333 340 341 341 344 345 343 342 342 340 335 331 331 332 332 334 336 335 333 332 329 328 329 328 328 328 327 327 327 325 321 315 306 293 280 270
151 152 153 152 150 149 149 147 145 143 142 142 139 138 138 137 136 131 126 128 135 144 154 158 163 174 181 191 208 220 308 11 16 13 12 15 19 18 10 1 358 355 347 338 334 336 337 333 329 333 336 333 335 342 345 344 345 344 341 338 337 337 337 337 338 339 337 335 333 331 330 330 330 330 330 329 330 330 328 325 322 316 305 284 267
151 153 153 150 148 148 148 147 146 145 145 144 141 141 143 145 143 141 145 151 153 155 161 163 164 172 177 176 171 180 195 56 33 14 7 8 10 8 6 2 357 353 347 340 335 333 331 328 327 331 332 331 336 344 346 345 345 343 340 340 341 340 339 340 342 342 340 337 335 333 333 333 331 331 330 330 332 331 330 330 330 327 319 301 276
153 153 151 149 148 148 148 148 148 147 146 146 145 146 149 151 152 159 171 175 170 166 165 167 165 152 145 141 129 132 142 95 42 14 3 3 2 1 3 1 354 352 352 347 339 334 330 328 329 332 336 342 346 347 347 346 346 344 342 343 343 340 339 342 345 344 341 339 337 336 335 335 334 333 333 334 336 336 336 340 343 343 340 332 299
153 151 150 149 149 150 150 149 149 149 149 151 151 152 158 161 161 169 178 175 170 168 161 156 152 138 124 120 115 117 121 98 45 8 359 1 360 358 1 -0 356 358 0 353 344 340 337 333 333 339 347 351 351 350 349 347 347 346 346 346 346 342 342 344 345 345 343 340 338 337 338 338 338 337 337 339 341 343 344 348 352 356 1 4 357
153 152 152 151 151 153 152 151 151 151 153 156 157 159 169 175 171 172 173 165 160 164 160 154 148 136 127 124 119 121 117 94 28 358 359 3 3 4 6 6 7 10 8 355 347 346 344 340 341 348 354 354 351 351 350 348 347 348 349 349 348 345 344 345 346 347 345 341 339 338 340 341 340 340 343 345 346 348 349 350 354 360 5 11 18
153 154 153 153 155 156 154 153 153 155 158 161 162 166 178 183 177 177 177 169 168 173 165 154 151 143 135 130 117 113 110 80 0 353 1 2 1 6 11 11 13 13 6 354 348 347 346 345 349 354 354 351 351 352 351 349 349 350 351 351 349 347 346 347 348 349 347 342 339 340 341 343 343 345 347 349 350 352 354 354 357 2 6 12 18
156 156 155 156 158 157 155 155 155 158 165 168 167 172 181 182 173 162 148 142 149 161 155 143 134 112 114 126 115 84 88 50 351 352 358 357 359 6 13 13 11 9 1 348 343 345 347 346 348 352 353 351 352 353 352 351 350 351 352 352 350 347 348 351 351 351 349 344 341 342 344 346 348 349 350 351 352 355 358 360 1 4 10 18 22
158 157 157 159 159 156 156 156 157 163 168 164 156 157 167 171 165 155 144 138 133 127 129 137 140 109 97 125 134 87 73 352 337 348 352 352 355 1 7 8 6 3 355 343 336 340 344 342 343 349 353 353 353 353 352 351 351 352 352 353 351 349 351 353 352 350 349 346 343 344 346 347 351 353 353 354 355 358 1 4 5 8 13 18 22
159 159 160 161 159 156 156 159 162 168 169 157 146 142 137 138 146 152 160 176 179 162 152 163 172 150 117 119 180 180 176 304 332 350 351 350 355 358 359 359 354 348 344 338 335 337 337 336 342 351 354 354 355 355 353 351 351 353 353 353 352 352 353 354 352 351 349 347 345 347 347 349 354 357 357 356 357 360 4 7 9 12 15 16 18
160 161 162 162 160 158 160 165 168 170 171 164 155 152 143 130 133 143 156 177 194 198 198 205 196 175 161 173 228 221 208 334 340 348 351 352 356 356 349 346 342 337 332 330 333 337 336 337 346 354 354 355 357 356 353 352 354 354 353 352 352 353 354 353 352 352 351 348 347 349 349 350 356 0 1 0 359 0 5 9 12 14 15 16 18
162 164 164 163 162 160 163 172 174 171 174 173 162 160 160 151 147 153 165 172 184 195 199 202 196 188 193 208 228 241 280 334 335 344 354 356 355 351 342 336 333 332 328 323 326 333 339 344 350 354 354 357 358 356 354 354 356 356 354 352 352 353 354 353 351 353 353 350 349 351 351 352 356 2 4 5 4 3 5 9 12 14 15 17 19
164 166 164 162 164 164 165 175 180 172 174 178 169 165 170 168 165 174 181 178 179 182 183 186 186 189 199 210 221 241 274 304 319 337 356 358 352 344 338 335 334 337 335 327 324 333 342 347 351 354 354 355 356 355 355 355 357 358 356 354 353 353 353 352 352 354 355 353 351 352 353 353 356 1 5 7 8 7 8 9 11 14 15 17 18
167 169 164 161 167 169 166 174 184 179 175 179 175 170 175 177 176 180 183 183 189 195 194 193 192 190 189 189 192 219 281 304 313 332 357 10 4 347 338 337 342 350 352 347 343 344 344 346 352 354 353 354 356 355 355 356 357 358 357 355 354 352 352 353 354 355 356 355 353 352 354 356 357 0 4 8 10 10 11 11 12 14 16 17 18
169 170 164 162 169 174 167 171 183 185 181 182 180 177 181 183 179 180 184 189 195 203 205 204 203 195 185 179 181 195 260 308 312 316 343 12 6 346 338 337 337 343 353 357 355 350 345 346 352 354 351 353 355 354 354 355 357 358 357 355 354 354 353 354 355 355 356 357 355 353 354 357 359 1 5 8 10 12 13 14 14 15 17 18 20
168 166 160 159 168 179 176 174 182 188 184 183 184 185 189 186 180 182 190 195 198 204 209 210 209 202 195 199 208 213 229 258 282 284 297 334 336 320 320 324 323 325 339 352 350 347 345 346 350 352 351 352 354 352 352 353 355 356 356 354 355 355 354 354 355 356 356 357 356 355 356 357 359 1 4 8 11 13 15 17 18 18 20 21 22
165 161 157 158 168 183 186 179 181 187 185 181 184 192 198 191 182 185 194 197 200 208 208 204 205 206 208 214 220 221 227 241 250 259 269 277 281 285 297 306 305 306 324 343 341 340 342 344 348 350 349 350 351 350 349 350 352 353 353 353 355 356 356 356 356 357 358 358 357 356 356 357 359 1 2 6 11 12 14 19 21 21 23 24 25
163 163 164 165 171 182 189 183 180 183 184 183 186 192 197 194 190 197 206 203 203 212 208 194 194 202 214 224 225 220 224 239 249 256 262 264 263 270 285 294 292 295 313 331 330 332 338 341 344 346 346 346 347 347 347 347 349 350 350 351 353 356 358 357 357 358 359 359 358 357 357 356 359 2 2 4 8 11 13 18 22 24 25 26 27
171 168 170 173 174 177 183 186 183 180 182 187 190 193 195 193 191 199 211 212 204 206 208 201 200 208 219 226 221 213 215 230 246 258 264 262 256 257 269 282 288 293 306 315 318 324 332 335 336 340 341 341 342 343 344 344 344 345 348 349 351 355 359 359 357 358 360 359 358 358 359 358 358 1 3 3 6 10 13 16 21 26 28 29 31
186 174 171 175 178 176 180 185 183 178 181 190 196 198 197 196 195 200 209 215 212 206 209 217 223 227 228 218 206 200 208 223 242 259 267 264 256 252 261 274 281 287 297 303 307 315 322 324 328 332 334 335 336 337 339 340 340 341 344 347 350 354 359 360 358 358 359 358 358 358 359 360 360 2 3 3 4 8 13 17 21 26 30 34 36
188 174 170 176 181 183 184 183 178 176 183 192 201 205 199 196 201 207 208 212 217 216 214 220 230 239 235 214 192 185 197 222 248 266 273 273 267 259 260 267 270 277 287 290 293 304 311 312 315 322 323 325 329 331 333 336 337 337 340 344 347 352 358 -0 0 0 359 358 359 360 0 2 2 2 3 4 4 5 10 16 22 27 30 34 39
181 170 170 175 181 186 190 185 179 180 187 194 202 210 205 197 202 211 214 216 220 222 222 227 234 240 237 222 205 202 216 238 258 264 263 267 269 266 264 266 266 271 278 278 279 291 300 300 304 312 314 318 324 326 327 331 334 334 336 339 341 348 356 360 1 1 0 359 0 1 1 2 4 3 3 4 5 4 6 10 19 28 34 36 40
177 168 168 173 180 186 193 191 185 185 190 193 199 209 211 205 203 209 214 220 225 227 228 233 238 239 232 224 222 228 235 242 250 252 252 256 261 261 261 262 263 267 272 273 272 279 289 291 294 299 302 306 312 317 320 326 330 329 331 334 335 338 349 357 1 2 0 359 1 3 1 1 3 3 3 4 5 4 4 6 10 20 32 39 42
170 166 169 175 181 187 195 198 194 192 193 194 199 207 212 213 212 211 212 217 221 224 227 232 239 243 234 222 219 224 229 232 241 249 252 252 253 252 253 258 263 266 268 269 270 273 279 282 285 290 294 297 302 308 313 318 322 323 326 330 329 327 339 352 358 0 -0 359 360 1 1 1 2 2 3 4 4 3 3 5 5 8 19 34 42
170 168 172 178 184 190 197 203 202 200 198 197 200 204 209 213 219 221 220 221 222 222 223 226 231 238 237 224 218 222 229 236 242 247 248 248 247 248 251 256 260 261 262 264 267 270 271 274 278 281 285 290 297 305 308 309 312 318 323 325 321 317 328 345 351 354 358 359 359 359 360 -0 0 1 1 2 3 2 1 3 5 5 8 17 31
182 176 175 179 186 192 198 202 204 205 203 201 203 206 208 212 218 223 226 228 228 229 230 228 227 230 232 228 225 227 231 235 239 241 241 240 241 245 250 253 254 257 260 262 266 268 270 273 277 280 283 290 296 299 298 300 305 312 318 318 313 307 315 332 340 346 353 356 357 358 359 358 357 359 1 1 2 1 1 3 6 6 5 8 13
192 185 178 179 185 192 197 201 204 206 205 204 205 209 211 213 216 219 224 228 229 232 235 234 232 231 231 230 230 231 232 235 240 244 245 246 246 250 253 252 249 249 252 255 261 266 268 271 276 279 282 287 290 289 289 294 300 302 304 306 303 300 304 318 330 337 345 350 352 356 358 355 353 356 0 1 1 0 0 1 3 3 3 4 5
192 192 186 182 184 190 196 200 204 207 208 208 209 210 212 215 217 218 221 224 226 228 232 236 238 240 239 238 238 238 238 239 243 245 247 249 249 251 253 254 252 249 246 249 256 262 263 265 271 275 277 279 280 281 286 291 292 291 291 293 294 295 299 309 320 329 335 340 346 351 353 350 348 351 356 359 360 359 359 360 1 0 360 1 2
193 197 195 188 187 191 195 199 203 207 210 212 215 214 214 218 221 223 224 226 226 227 228 229 232 237 241 243 246 248 248 248 247 246 246 247 247 249 252 254 253 250 246 244 247 252 255 258 264 269 273 277 279 280 282 284 284 282 282 282 284 288 292 300 311 322 327 329 335 342 346 346 344 345 350 354 355 355 357 360 360 357 356 358 2
198 197 198 195 193 196 198 200 202 205 208 211 216 218 218 219 222 226 230 233 235 236 235 233 232 234 236 239 242 245 247 249 251 251 251 249 248 249 253 254 252 249 246 245 245 247 250 254 259 265 271 277 280 279 279 279 279 280 280 276 275 280 286 293 305 315 318 319 324 331 336 340 340 337 340 346 349 350 354 358 357 354 354 357 1
208 200 199 199 199 202 205 206 206 208 210 211 214 218 221 221 223 225 228 231 236 240 243 244 244 243 241 241 241 242 243 244 247 250 252 252 249 250 257 262 261 256 251 249 248 247 247 249 257 264 269 274 276 277 277 277 276 278 279 276 272 275 281 290 301 309 309 309 315 321 326 331 333 328 326 331 336 341 348 354 355 352 352 355 357